Погода в Гызыларбате

Погода в Гызыларбате : погода сейчас, прогноз погоды и архив. Всё, что Вы хотите узнать о погоде в Гызыларбате!

Хотите узнать прогноз погоды в Гызыларбате? Тогда Вам сюда: Погода в Гызыларбате

Поиск расширенной информации на нашем сайте:

Другие новости

Новости СМИ2

Главная страница сайта

Новости сайта

03.07.2017

Напоминаем, что на нашем специализированном сайте Метеоцентр.Азия вы можете получить высокодетализированные автоматические прогнозы погоды по пунктам России, СНГ и мира в авиационном формате (включающие направление и скорость ветра, видимость, явления погоды, количество и форму облачности, нижнюю и верхнюю границу облачности).

Рекомендуем: Хохлома - хохломские узоры в векторе.

Погода в Гызыларбате - сегодня

Время (UTC), дата Ветер
(°,м/с) 
Видим.   Явления Облачность Т
(°С)
Тd
(°С)
f(%) Тe
(°С)
Pmin
(гПа)
dP
(гПа)
Po
(мм)
O2
(г/м3)
Тmin Tmax R s Состояние
почвы
12 18.11.18 090 (В) 20000 м    8/8 800 м 
[Sc]
+13.9 +3.6 50 +15  1022.7  -0.3  759  291           
15 18.11.18 тихо ()   10 км    9/9 800 м 
[Sc]
+12.5 +4.3 57 +13  1022.5  -0.1  759  292    +14.7       
18 18.11.18 тихо ()   10 км    9/0 средняя 
[Ac trans]
+9.2 +2.1 61 +9  1021.8  -0.9  758  295    +14.7       
21 18.11.18 240 (ЮЗ) 10 км    10/10 900 м 
[Cu Sc]
+9 +3.4 68 +9  1022.7  0.9  759  296           
00 19.11.18 140 (ЮВ) 10 км  слаб. ливневой дождь  10/10 720 м кучево-дожд. 
[Cb cap]
+7.6 +6.2 91 +8  1022.3  -0.4  759  296           
03 19.11.18 тихо ()   10 км  {ливн. осадки}  10/10 600 м 
[Cu Sc]
+7.4 +6.1 91 +7  1023.4  1.1  760  297         
06 19.11.18 290 (З) 10 км  {ливн. осадки}  10/10 600 м 
[Sc]
+8 +6.7 91 +8  1024.6  1.2  761  297  +7.3         
09 19.11.18 260 (З) 20000 м    9/9 700 м 
[Sc]
+8.8 +7.3 90 +9  1024.8  0.2  761  296           
12 19.11.18 270 (З) 20000 м    4/4 600 м 
[Sc]
+10.9 +2.3 55 +10  1025.4  0.7  761  295           
15 19.11.18 200 (Ю) 10 км    8/8 800 м 
[Sc]
+9 +4.5 73 +10  1026.7  1.2  762  297    +11.4     
18 19.11.18 160 (Ю) 10 км    4/4 600 м 
[Sc]
+8.1 +4.6 79 +9  1026.6  -0.1  762  297    +11.4     
21 19.11.18 тихо ()   10 км    ясно 
+4.5 +3.3 92 +5  1026.6  -0.2  762  302           
00 20.11.18 тихо ()   10 км    ясно 
+3.8 +2.3 90 +4  1026.4  -0.2  762  302           
03 20.11.18 150 (ЮВ) 20000 м    5/5 600 м 
[Sc]
+3.7 +2.2 90 +5  1027.3  0.9  762  303           
06 20.11.18 100 (В) 20000 м    3/3 600 м 
[Sc]
+9.8 +4 67 +9  1027.2  0.2  763  296  +2.2         
09 20.11.18 100 (В) 20000 м    3/0 средняя 
[Ac trans]
+12 +5.3 64 +11  1025  -0.1  761  293           
12 20.11.18 090 (В) 20000 м    6/0 средняя 
[Ac trans]
+12 +6.1 67 +11  1022.3  -2.7  759  292           
15 20.11.18 120 (ЮВ) 10 км    3/0 верхняя 
[Ci fib]
+8.6 +5.9 83 +9  1021.4  -1.1  758  295    +12.2       
18 20.11.18 080 (В) 10 км    ясно 
+8.6 +6.4 86 +7  1019.6  -1.7  757  295    +12.2       
21 20.11.18 130 (ЮВ) 4000 м  дымка  ясно 
+7.6 +6.7 94 +8  1017.1  -2.5  755  295           
00 21.11.18 210 (ЮЗ) 0200 м  туман  ?/?  
+6 +6 100 +7  1015.9  -1.2  754  296           
03 21.11.18 тихо ()   0200 м  туман  ?/?  
+6.3 +6.3 100 +6  1014.6  -1.3  753  296           
06 21.11.18 тихо ()   1000 м  дымка{туман}  9/9 200 м 
[St]
+7 +6.4 96 +7  1014.6  753  295  +6         
09 21.11.18 250 (З) 20000 м  туман поземный{дождь}  9/0 
+15.7 +7.3 57 +15    -1.9             
12 21.11.18 290 (З) 20000 м    6/3 600 м средняя, верхняя 
[Cu med, cong|Ac trans|Cs]
+14.2 +7.3 63 +14  1011.9  -0.5  751  287           
Время (UTC), дата Ветер
(°,м/с) 
Видим.   Явления Облачность Т
(°С)
Тd
(°С)
f(%) Тe
(°С)
Pmin
(гПа)
dP
(гПа)
Po
(мм)
O2
(г/м3)
Тmin Tmax R s Состояние
почвы

Для получения пояснительной информации подведите курсор к названию столбца.

ПОГОДА в Гызыларбате - архив

Всё, что Вы хотите узнать о погоде в Гызыларбате - удобно и подробно!

Выберите нужную дату (начиная с 1 января 2015* года) и нажмите кнопку "Найти".
Будут отображены архивные сводки погоды по пункту Гызыларбат, начиная с указанной даты.


Отображать данные в формате CSV (для использования в таблицах Excel)


Внимание! Наш архив погоды предназначен исключительно для личного некоммерческого использования в познавательных целях. Если Вам необходимы официальные справки о состоянии погоды (для производственных, юридических, коммерческих и т.п. целей), обращайтесь в органы Росгидромета.

*Примечание: данная дата относится к архиву по метеостанциям СССР (Россия, СНГ, Балтия).
Архив по метеостанциям Зарубежной Европы и Азии (кроме Китая) хранится 10 дней, по другим регионам земного шара (Китай, Африка, Америка, Австралия, Океания) - 1 день.

Гызыларбат - район местоположения метеостанции


Название, широта, долгота, высота метеостанции:
Гызыларбат 39°ш. 56.3°д. 92 м над ур. моря [Туркменистан]

Дополнительная информация

В oтличие oт бoльшинства пoгoдных сайтoв мы публикуем пoдрoбную метеoинфoрмацию в детальнoм прoфессиoнальнoм фoрмате.

Характеристики температуры и влажнoсти вoздуха измеряются на высoте 2 м в тени вдали oт зданий и деревьев.
Скoрoсть ветра измеряется на высoте 10 м (на урoвне рoста челoвека скoрoсть ветра ниже в 1.5-2 раза). Если метеoстанция нахoдится в гoрoде или в лесу, тo скoрoсть ветра занижена на 2-4 м/с пo сравнению с oткрытым местoм. Скoрoсть ветра над акватoриями крупных рек и oзёр, а также на вершинах хoлмoв на 2-5 м/с выше, чем в oбычных услoвиях.
Атмoсфернoе давление в разных тoчках местнoсти мoжет значительнo oтличаться oт давления на метеoстанции, в зависимoсти oт услoвий рельефа (при пoдъёме на 10 м давление пoнижается примернo на 1 мм рт.ст.).